When you browse on this site, cookies collect data to enhance your experience and personalize the content and advertising you see.
Visit our Privacy Policy to learn more. By continuing to use the site, you agree to this use of cookies and data.
  • In Romania
  • List of Countries
  • For 7 days
  • Water Temperature
  • Weather Map
  • Weather Widgets
  • user-avatar
    Login

    Hourly Weather Wronki

    Today, 26 August, Monday

    Time Temperature Precipitation Wind Pressure Humidity
    00:00 +23°C° 0 mm 2 mps 760 mmHg 72%
    01:00 +22°C° 0 mm 3 mps 760 mmHg 72%
    02:00 +23°C° 0 mm 2 mps 760 mmHg 74%
    03:00 +21°C° 0 mm 2 mps 760 mmHg 77%
    04:00 +21°C° 0 mm 2 mps 759 mmHg 79%
    05:00 +21°C° 0 mm 2 mps 760 mmHg 78%
    06:00 +23°C° 0 mm 2 mps 760 mmHg 77%
    07:00 +23°C° 0 mm 2 mps 760 mmHg 77%
    08:00 +25°C° 0 mm 3 mps 760 mmHg 71%
    09:00 +27°C° 0 mm 3 mps 760 mmHg 66%
    10:00 +28°C° 0 mm 3 mps 760 mmHg 61%
    11:00 +29°C° 0 mm 3 mps 760 mmHg 56%
    12:00 +31°C° 0 mm 3 mps 760 mmHg 52%
    13:00 +33°C° 0 mm 3 mps 759 mmHg 47%
    14:00 +33°C° 0 mm 3 mps 759 mmHg 46%
    15:00 +33°C° 0 mm 3 mps 759 mmHg 45%
    16:00 +33°C° 0 mm 3 mps 758 mmHg 44%
    17:00 +31°C° 0 mm 3 mps 758 mmHg 49%
    18:00 +29°C° 0 mm 3 mps 758 mmHg 54%
    19:00 +28°C° 0 mm 3 mps 758 mmHg 60%
    20:00 +27°C° 0.4 mm 3 mps 758 mmHg 63%
    21:00 +26°C° 0.4 mm 3 mps 758 mmHg 67%
    22:00 +25°C° 0.4 mm 3 mps 759 mmHg 71%
    23:00 +24°C° 0.1 mm 3 mps 759 mmHg 72%

    Tomorrow, 27 August, Tuesday

    Time Temperature Precipitation Wind Pressure Humidity
    00:00 +24°C° 0.1 mm 2 mps 759 mmHg 74%
    01:00 +23°C° 0.1 mm 2 mps 759 mmHg 75%
    02:00 +23°C° 0 mm 2 mps 758 mmHg 77%
    03:00 +23°C° 0 mm 2 mps 758 mmHg 79%
    04:00 +21°C° 0 mm 2 mps 758 mmHg 82%
    05:00 +22°C° 0 mm 3 mps 758 mmHg 79%
    06:00 +24°C° 0 mm 3 mps 758 mmHg 77%
    07:00 +25°C° 0 mm 3 mps 758 mmHg 74%
    08:00 +26°C° 0 mm 4 mps 758 mmHg 68%
    09:00 +28°C° 0 mm 4 mps 758 mmHg 61%
    10:00 +30°C° 0 mm 4 mps 758 mmHg 55%
    11:00 +32°C° 0 mm 4 mps 758 mmHg 50%
    12:00 +34°C° 0 mm 4 mps 758 mmHg 45%
    13:00 +35°C° 0 mm 4 mps 758 mmHg 39%
    14:00 +35°C° 0 mm 4 mps 758 mmHg 39%
    15:00 +35°C° 0 mm 4 mps 757 mmHg 39%
    16:00 +35°C° 0 mm 4 mps 757 mmHg 38%
    17:00 +33°C° 0 mm 3 mps 757 mmHg 44%
    18:00 +30°C° 0 mm 3 mps 757 mmHg 49%
    19:00 +29°C° 0 mm 2 mps 756 mmHg 55%
    20:00 +28°C° 0.1 mm 2 mps 757 mmHg 58%
    21:00 +27°C° 0.1 mm 2 mps 757 mmHg 61%
    22:00 +26°C° 0.1 mm 2 mps 757 mmHg 64%
    23:00 +26°C° 0.1 mm 2 mps 757 mmHg 66%

    Day after tomorrow, 28 August, Wednesday

    Time Temperature Precipitation Wind Pressure Humidity
    00:00 +25°C° 0.1 mm 2 mps 757 mmHg 68%
    01:00 +25°C° 0.1 mm 2 mps 757 mmHg 70%
    02:00 +24°C° 0 mm 2 mps 757 mmHg 73%
    03:00 +24°C° 0 mm 2 mps 756 mmHg 75%
    04:00 +23°C° 0 mm 2 mps 756 mmHg 78%
    05:00 +24°C° 0 mm 2 mps 756 mmHg 76%
    06:00 +25°C° 0 mm 2 mps 756 mmHg 73%
    07:00 +25°C° 0 mm 2 mps 756 mmHg 71%
    08:00 +27°C° 0 mm 2 mps 756 mmHg 64%
    09:00 +29°C° 0 mm 2 mps 756 mmHg 57%
    10:00 +31°C° 0 mm 2 mps 756 mmHg 50%
    11:00 +32°C° 0 mm 2 mps 756 mmHg 47%
    12:00 +34°C° 0 mm 3 mps 755 mmHg 43%
    13:00 +35°C° 0 mm 3 mps 755 mmHg 39%
    14:00 +35°C° 0 mm 3 mps 755 mmHg 40%
    15:00 +34°C° 0 mm 3 mps 755 mmHg 41%
    16:00 +34°C° 0 mm 3 mps 755 mmHg 41%
    17:00 +33°C° 0 mm 3 mps 755 mmHg 46%
    18:00 +30°C° 0 mm 2 mps 754 mmHg 51%
    19:00 +28°C° 0 mm 2 mps 754 mmHg 56%
    20:00 +27°C° 0 mm 2 mps 754 mmHg 59%
    21:00 +27°C° 0 mm 2 mps 755 mmHg 62%
    22:00 +26°C° 0 mm 2 mps 755 mmHg 65%
    23:00 +25°C° 0 mm 2 mps 755 mmHg 67%

    29 August, Thursday

    Time Temperature Precipitation Wind Pressure Humidity
    00:00 +25°C° 0 mm 2 mps 755 mmHg 69%
    01:00 +24°C° 0 mm 2 mps 755 mmHg 71%
    02:00 +24°C° 0 mm 1 mps 755 mmHg 71%
    03:00 +24°C° 0 mm 1 mps 755 mmHg 72%
    04:00 +23°C° 0 mm 1 mps 755 mmHg 72%
    05:00 +24°C° 0 mm 1 mps 755 mmHg 70%
    06:00 +25°C° 0 mm 1 mps 755 mmHg 67%
    07:00 +26°C° 0 mm 1 mps 755 mmHg 65%
    08:00 +28°C° 0 mm 1 mps 755 mmHg 58%
    09:00 +30°C° 0 mm 1 mps 755 mmHg 52%
    10:00 +32°C° 0 mm 1 mps 755 mmHg 45%
    11:00 +32°C° 0 mm 1 mps 755 mmHg 42%
    12:00 +33°C° 0 mm 1 mps 755 mmHg 38%
    13:00 +34°C° 0 mm 1 mps 755 mmHg 35%
    14:00 +34°C° 0 mm 1 mps 755 mmHg 35%
    15:00 +33°C° 0 mm 1 mps 754 mmHg 36%
    16:00 +33°C° 0 mm 1 mps 754 mmHg 36%
    17:00 +32°C° 0 mm 1 mps 754 mmHg 39%
    18:00 +30°C° 0 mm 1 mps 755 mmHg 42%
    19:00 +27°C° 0 mm 0 mps 755 mmHg 46%
    20:00 +28°C° 0.1 mm 1 mps 755 mmHg 50%
    21:00 +27°C° 0.1 mm 1 mps 755 mmHg 53%
    22:00 +26°C° 0.1 mm 2 mps 756 mmHg 57%
    23:00 +25°C° 0.4 mm 2 mps 756 mmHg 64%

    30 August, Friday

    Time Temperature Precipitation Wind Pressure Humidity
    00:00 +24°C° 0.4 mm 2 mps 756 mmHg 71%
    01:00 +23°C° 0.4 mm 2 mps 756 mmHg 78%
    02:00 +23°C° 0.3 mm 2 mps 756 mmHg 81%
    03:00 +21°C° 0.3 mm 2 mps 756 mmHg 85%
    04:00 +21°C° 0.3 mm 3 mps 756 mmHg 88%
    05:00 +21°C° 0.5 mm 3 mps 757 mmHg 88%
    06:00 +21°C° 0.5 mm 3 mps 757 mmHg 87%
    07:00 +21°C° 0.5 mm 3 mps 757 mmHg 86%
    08:00 +22°C° 0.5 mm 3 mps 757 mmHg 84%
    09:00 +22°C° 0.5 mm 3 mps 758 mmHg 83%
    10:00 +22°C° 0.5 mm 3 mps 758 mmHg 81%
    11:00 +24°C° 0.2 mm 3 mps 758 mmHg 77%
    12:00 +25°C° 0.2 mm 3 mps 758 mmHg 73%
    13:00 +25°C° 0.2 mm 3 mps 758 mmHg 69%
    14:00 +25°C° 0.1 mm 3 mps 758 mmHg 69%
    15:00 +25°C° 0.1 mm 3 mps 758 mmHg 69%
    16:00 +25°C° 0.1 mm 3 mps 758 mmHg 69%
    17:00 +24°C° 0.1 mm 2 mps 758 mmHg 72%
    18:00 +24°C° 0.1 mm 2 mps 758 mmHg 75%
    19:00 +23°C° 0.1 mm 2 mps 758 mmHg 77%
    20:00 +21°C° 0.1 mm 2 mps 758 mmHg 80%
    21:00 +20°C° 0.1 mm 2 mps 758 mmHg 82%
    22:00 +20°C° 0.1 mm 3 mps 758 mmHg 84%
    23:00 +19°C° 0 mm 2 mps 758 mmHg 87%

    31 August, Saturday

    Time Temperature Precipitation Wind Pressure Humidity
    00:00 +19°C° 0 mm 2 mps 758 mmHg 89%
    01:00 +18°C° 0 mm 2 mps 758 mmHg 91%
    02:00 +18°C° 0 mm 2 mps 757 mmHg 92%
    03:00 +18°C° 0 mm 2 mps 757 mmHg 94%
    04:00 +18°C° 0 mm 2 mps 757 mmHg 95%
    05:00 +18°C° 0 mm 2 mps 757 mmHg 93%
    06:00 +19°C° 0 mm 2 mps 757 mmHg 91%
    07:00 +20°C° 0 mm 2 mps 757 mmHg 89%
    08:00 +21°C° 0 mm 2 mps 757 mmHg 82%
    09:00 +24°C° 0 mm 2 mps 757 mmHg 75%
    10:00 +25°C° 0 mm 2 mps 757 mmHg 68%
    11:00 +26°C° 0 mm 2 mps 756 mmHg 64%
    12:00 +27°C° 0 mm 2 mps 756 mmHg 61%
    13:00 +28°C° 0 mm 2 mps 755 mmHg 57%
    14:00 +29°C° 0 mm 2 mps 755 mmHg 56%
    15:00 +29°C° 0 mm 1 mps 754 mmHg 55%
    16:00 +29°C° 0 mm 1 mps 754 mmHg 53%
    17:00 +28°C° 0 mm 1 mps 753 mmHg 59%
    18:00 +26°C° 0 mm 2 mps 753 mmHg 64%
    19:00 +25°C° 0 mm 2 mps 753 mmHg 69%
    20:00 +25°C° 0 mm 2 mps 753 mmHg 71%
    21:00 +24°C° 0 mm 2 mps 753 mmHg 72%
    22:00 +23°C° 0 mm 2 mps 752 mmHg 74%
    23:00 +23°C° 0.2 mm 2 mps 752 mmHg 76%
    Show more